Wetterdaten: Mittwoch, 22.07.2020
Datum Zeit Temp. Auen Feucht Auen Luftdruck Regen Richtung Richtung Windben
22.07.2020 00:00 17,4 C 89 % 1019,0 hPa 0,0 mm O 86 1,6 km/h (1 Bft)
22.07.2020 00:05 17,4 C 89 % 1019,1 hPa 0,0 mm O 86 1,6 km/h (1 Bft)
22.07.2020 00:10 17,4 C 89 % 1019,1 hPa 0,0 mm O 86 1,6 km/h (1 Bft)
22.07.2020 00:15 17,4 C 89 % 1019,1 hPa 0,0 mm O 86 4,8 km/h (1 Bft)
22.07.2020 00:20 17,4 C 89 % 1019,2 hPa 0,0 mm O 86 1,6 km/h (1 Bft)
22.07.2020 00:25 17,4 C 89 % 1019,2 hPa 0,0 mm O 86 0,0 km/h (0 Bft)
22.07.2020 00:30 17,4 C 89 % 1019,2 hPa 0,0 mm O 86 0,0 km/h (0 Bft)
22.07.2020 00:35 17,3 C 89 % 1019,0 hPa 0,0 mm O 86 0,0 km/h (0 Bft)
22.07.2020 00:40 17,3 C 89 % 1019,0 hPa 0,0 mm O 86 0,0 km/h (0 Bft)
22.07.2020 00:45 17,2 C 89 % 1019,2 hPa 0,0 mm O 86 1,6 km/h (1 Bft)
22.07.2020 00:50 17,2 C 89 % 1019,1 hPa 0,0 mm O 86 0,0 km/h (0 Bft)
22.07.2020 00:55 17,1 C 89 % 1019,2 hPa 0,0 mm O 86 1,6 km/h (1 Bft)
22.07.2020 01:00 16,9 C 89 % 1019,1 hPa 0,0 mm O 86 1,6 km/h (1 Bft)
22.07.2020 01:05 16,9 C 89 % 1019,0 hPa 0,0 mm O 86 1,6 km/h (1 Bft)
22.07.2020 01:10 16,8 C 88 % 1018,9 hPa 0,0 mm O 86 0,0 km/h (0 Bft)
22.07.2020 01:15 16,7 C 88 % 1019,0 hPa 0,0 mm O 86 0,0 km/h (0 Bft)
22.07.2020 01:20 16,6 C 89 % 1019,0 hPa 0,0 mm O 86 4,8 km/h (1 Bft)
22.07.2020 01:25 16,6 C 89 % 1019,1 hPa 0,0 mm O 86 3,2 km/h (1 Bft)
22.07.2020 01:30 16,5 C 89 % 1019,1 hPa 0,0 mm O 86 1,6 km/h (1 Bft)
22.07.2020 01:35 16,4 C 89 % 1019,0 hPa 0,0 mm W-NW 288 4,8 km/h (1 Bft)
22.07.2020 01:40 16,4 C 89 % 1018,9 hPa 0,0 mm W-NW 286 4,8 km/h (1 Bft)
22.07.2020 01:45 16,3 C 89 % 1018,9 hPa 0,0 mm W-NW 286 1,6 km/h (1 Bft)
22.07.2020 01:50 16,3 C 89 % 1019,1 hPa 0,0 mm W-NW 285 4,8 km/h (1 Bft)
22.07.2020 01:55 16,3 C 89 % 1019,0 hPa 0,0 mm W-NW 285 1,6 km/h (1 Bft)
22.07.2020 02:00 16,2 C 89 % 1018,9 hPa 0,0 mm W-NW 285 0,0 km/h (0 Bft)
22.07.2020 02:05 16,1 C 89 % 1019,1 hPa 0,0 mm W-NW 285 1,6 km/h (1 Bft)
22.07.2020 02:10 16,1 C 89 % 1019,1 hPa 0,0 mm W-NW 285 0,0 km/h (0 Bft)
22.07.2020 02:15 16,0 C 89 % 1019,1 hPa 0,0 mm W-NW 285 0,0 km/h (0 Bft)
22.07.2020 02:20 15,9 C 89 % 1019,1 hPa 0,0 mm W-NW 285 0,0 km/h (0 Bft)
22.07.2020 02:25 15,9 C 89 % 1019,1 hPa 0,0 mm W-NW 285 0,0 km/h (0 Bft)
22.07.2020 02:30 15,8 C 89 % 1019,1 hPa 0,0 mm W-NW 285 0,0 km/h (0 Bft)
22.07.2020 02:35 15,8 C 89 % 1019,1 hPa 0,0 mm W-NW 285 0,0 km/h (0 Bft)
22.07.2020 02:40 15,7 C 89 % 1018,9 hPa 0,0 mm W-NW 285 0,0 km/h (0 Bft)
22.07.2020 02:45 15,6 C 89 % 1018,9 hPa 0,0 mm W-NW 285 0,0 km/h (0 Bft)
22.07.2020 02:50 15,6 C 89 % 1019,0 hPa 0,0 mm W-NW 285 0,0 km/h (0 Bft)
22.07.2020 02:55 15,5 C 89 % 1018,9 hPa 0,0 mm W-NW 285 0,0 km/h (0 Bft)
22.07.2020 03:00 15,4 C 89 % 1018,9 hPa 0,0 mm W-NW 285 0,0 km/h (0 Bft)
22.07.2020 03:05 15,4 C 89 % 1018,8 hPa 0,0 mm W-NW 285 0,0 km/h (0 Bft)
22.07.2020 03:10 15,3 C 89 % 1018,9 hPa 0,0 mm W-NW 285 0,0 km/h (0 Bft)
22.07.2020 03:15 15,3 C 89 % 1018,8 hPa 0,0 mm W-NW 285 0,0 km/h (0 Bft)
22.07.2020 03:20 15,2 C 89 % 1018,8 hPa 0,0 mm W-NW 285 3,2 km/h (1 Bft)
22.07.2020 03:25 15,2 C 89 % 1018,6 hPa 0,0 mm W-NW 285 1,6 km/h (1 Bft)
22.07.2020 03:30 15,2 C 89 % 1018,8 hPa 0,0 mm W-NW 285 1,6 km/h (1 Bft)
22.07.2020 03:35 15,2 C 90 % 1018,8 hPa 0,0 mm W-NW 285 3,2 km/h (1 Bft)
22.07.2020 03:40 15,2 C 90 % 1018,8 hPa 0,0 mm W-NW 285 3,2 km/h (1 Bft)
22.07.2020 03:45 15,1 C 90 % 1018,8 hPa 0,0 mm W-NW 285 3,2 km/h (1 Bft)
22.07.2020 03:50 15,1 C 90 % 1018,7 hPa 0,0 mm W-NW 285 1,6 km/h (1 Bft)
22.07.2020 03:55 15,1 C 90 % 1018,8 hPa 0,0 mm W-NW 285 0,0 km/h (0 Bft)
22.07.2020 04:00 15,1 C 90 % 1018,9 hPa 0,0 mm W-NW 285 1,6 km/h (1 Bft)
22.07.2020 04:05 15,0 C 90 % 1018,9 hPa 0,0 mm W-NW 285 3,2 km/h (1 Bft)
22.07.2020 04:10 14,9 C 90 % 1018,8 hPa 0,0 mm W-NW 285 3,2 km/h (1 Bft)
22.07.2020 04:15 14,9 C 90 % 1018,8 hPa 0,0 mm W-NW 285 4,8 km/h (1 Bft)
22.07.2020 04:20 14,9 C 90 % 1018,8 hPa 0,0 mm W-NW 285 3,2 km/h (1 Bft)
22.07.2020 04:25 14,8 C 90 % 1018,8 hPa 0,0 mm W-NW 285 1,6 km/h (1 Bft)
22.07.2020 04:30 14,8 C 90 % 1018,8 hPa 0,0 mm W-NW 285 1,6 km/h (1 Bft)
22.07.2020 04:35 14,8 C 90 % 1018,8 hPa 0,0 mm W-NW 285 0,0 km/h (0 Bft)
22.07.2020 04:40 14,7 C 90 % 1018,8 hPa 0,0 mm W-NW 285 0,0 km/h (0 Bft)
22.07.2020 04:45 14,7 C 90 % 1018,8 hPa 0,0 mm W-NW 285 1,6 km/h (1 Bft)
22.07.2020 04:50 14,7 C 90 % 1018,9 hPa 0,0 mm W-NW 285 0,0 km/h (0 Bft)
22.07.2020 04:55 14,7 C 90 % 1018,9 hPa 0,0 mm W-NW 285 0,0 km/h (0 Bft)
22.07.2020 05:00 14,6 C 90 % 1018,9 hPa 0,0 mm W-NW 285 0,0 km/h (0 Bft)
22.07.2020 05:05 14,6 C 90 % 1018,8 hPa 0,0 mm W-NW 285 0,0 km/h (0 Bft)
22.07.2020 05:10 14,6 C 90 % 1018,8 hPa 0,0 mm W-NW 285 0,0 km/h (0 Bft)
22.07.2020 05:15 14,5 C 90 % 1018,9 hPa 0,0 mm W-NW 285 1,6 km/h (1 Bft)
22.07.2020 05:20 14,5 C 90 % 1018,9 hPa 0,0 mm W-NW 285 3,2 km/h (1 Bft)
22.07.2020 05:25 14,5 C 90 % 1018,9 hPa 0,0 mm W-NW 285 1,6 km/h (1 Bft)
22.07.2020 05:30 14,6 C 90 % 1019,0 hPa 0,0 mm W-NW 285 1,6 km/h (1 Bft)
22.07.2020 05:35 14,6 C 90 % 1019,0 hPa 0,0 mm W-NW 285 1,6 km/h (1 Bft)
22.07.2020 05:40 14,5 C 90 % 1019,0 hPa 0,0 mm W-NW 285 1,6 km/h (1 Bft)
22.07.2020 05:45 14,6 C 90 % 1019,0 hPa 0,0 mm W-NW 285 0,0 km/h (0 Bft)
22.07.2020 05:50 14,5 C 90 % 1019,0 hPa 0,0 mm W-NW 285 0,0 km/h (0 Bft)
22.07.2020 05:55 14,5 C 90 % 1019,0 hPa 0,0 mm W-NW 285 0,0 km/h (0 Bft)
22.07.2020 06:00 14,5 C 91 % 1019,0 hPa 0,0 mm W-NW 285 0,0 km/h (0 Bft)
22.07.2020 06:05 14,6 C 91 % 1019,1 hPa 0,0 mm W-NW 285 0,0 km/h (0 Bft)
22.07.2020 06:10 14,6 C 91 % 1019,1 hPa 0,0 mm W-NW 285 0,0 km/h (0 Bft)
22.07.2020 06:15 14,7 C 91 % 1019,2 hPa 0,0 mm W-NW 285 3,2 km/h (1 Bft)
22.07.2020 06:20 14,7 C 91 % 1019,1 hPa 0,0 mm W-NW 285 4,8 km/h (1 Bft)
22.07.2020 06:25 14,8 C 91 % 1019,1 hPa 0,0 mm W-NW 285 1,6 km/h (1 Bft)
22.07.2020 06:30 14,9 C 91 % 1019,1 hPa 0,0 mm W-NW 285 1,6 km/h (1 Bft)
22.07.2020 06:35 15,0 C 91 % 1019,1 hPa 0,0 mm W-NW 285 1,6 km/h (1 Bft)
22.07.2020 06:40 15,1 C 91 % 1019,2 hPa 0,0 mm W-NW 285 3,2 km/h (1 Bft)
22.07.2020 06:45 15,2 C 91 % 1019,2 hPa 0,0 mm W-NW 285 3,2 km/h (1 Bft)
22.07.2020 06:50 15,4 C 91 % 1019,2 hPa 0,0 mm W-NW 285 3,2 km/h (1 Bft)
22.07.2020 06:55 15,5 C 91 % 1019,2 hPa 0,0 mm W-NW 285 3,2 km/h (1 Bft)
22.07.2020 07:00 15,6 C 91 % 1019,3 hPa 0,0 mm W-NW 285 3,2 km/h (1 Bft)
22.07.2020 07:05 15,8 C 91 % 1019,3 hPa 0,0 mm W-NW 285 3,2 km/h (1 Bft)
22.07.2020 07:10 15,8 C 91 % 1019,4 hPa 0,0 mm W-NW 285 4,8 km/h (1 Bft)
22.07.2020 07:15 16,0 C 91 % 1019,4 hPa 0,0 mm W-NW 285 3,2 km/h (1 Bft)
22.07.2020 07:20 16,1 C 91 % 1019,2 hPa 0,0 mm W-NW 285 6,4 km/h (2 Bft)
22.07.2020 07:25 16,2 C 91 % 1019,2 hPa 0,0 mm W-NW 285 3,2 km/h (1 Bft)
22.07.2020 07:30 16,3 C 91 % 1019,3 hPa 0,0 mm W-NW 285 4,8 km/h (1 Bft)
22.07.2020 07:35 16,4 C 91 % 1019,3 hPa 0,0 mm W-NW 285 4,8 km/h (1 Bft)
22.07.2020 07:40 17,1 C 92 % 1019,4 hPa 0,0 mm W-NW 285 3,2 km/h (1 Bft)
22.07.2020 07:45 17,4 C 91 % 1019,3 hPa 0,0 mm W-NW 285 1,6 km/h (1 Bft)
22.07.2020 07:50 17,6 C 91 % 1019,3 hPa 0,0 mm W-NW 285 0,0 km/h (0 Bft)
22.07.2020 07:55 17,8 C 91 % 1019,4 hPa 0,0 mm W-NW 285 1,6 km/h (1 Bft)
22.07.2020 08:00 17,9 C 91 % 1019,4 hPa 0,0 mm W-NW 285 0,0 km/h (0 Bft)
22.07.2020 08:05 18,0 C 90 % 1019,3 hPa 0,0 mm W-NW 285 3,2 km/h (1 Bft)
22.07.2020 08:10 18,2 C 90 % 1019,4 hPa 0,0 mm W-NW 285 0,0 km/h (0 Bft)
22.07.2020 08:15 18,3 C 90 % 1019,3 hPa 0,0 mm W-NW 285 1,6 km/h (1 Bft)
22.07.2020 08:20 19,1 C 90 % 1019,4 hPa 0,0 mm W-NW 285 1,6 km/h (1 Bft)
22.07.2020 08:25 19,7 C 89 % 1019,4 hPa 0,0 mm W-NW 285 4,8 km/h (1 Bft)
22.07.2020 08:30 20,7 C 88 % 1019,5 hPa 0,0 mm W-NW 284 4,8 km/h (1 Bft)
22.07.2020 08:35 20,7 C 83 % 1019,5 hPa 0,0 mm W 278 8,0 km/h (2 Bft)
22.07.2020 08:40 20,3 C 81 % 1019,6 hPa 0,0 mm W 273 11,3 km/h (2 Bft)
22.07.2020 08:45 20,2 C 81 % 1019,7 hPa 0,0 mm W 265 8,0 km/h (2 Bft)
22.07.2020 08:50 20,1 C 82 % 1019,7 hPa 0,0 mm W 279 9,7 km/h (2 Bft)
22.07.2020 08:55 20,1 C 82 % 1019,7 hPa 0,0 mm W-NW 290 11,3 km/h (2 Bft)
22.07.2020 09:00 20,2 C 81 % 1019,8 hPa 0,0 mm W 275 8,0 km/h (2 Bft)
22.07.2020 09:05 20,1 C 81 % 1019,8 hPa 0,0 mm W 277 9,7 km/h (2 Bft)
22.07.2020 09:10 19,9 C 81 % 1019,9 hPa 0,0 mm W 280 9,7 km/h (2 Bft)
22.07.2020 09:15 19,9 C 81 % 1020,0 hPa 0,0 mm W 273 9,7 km/h (2 Bft)
22.07.2020 09:20 20,0 C 82 % 1020,0 hPa 0,0 mm W-NW 296 11,3 km/h (2 Bft)
22.07.2020 09:25 20,1 C 81 % 1020,0 hPa 0,0 mm W-NW 286 9,7 km/h (2 Bft)
22.07.2020 09:30 20,1 C 81 % 1020,0 hPa 0,0 mm W-NW 284 8,0 km/h (2 Bft)
22.07.2020 09:35 20,1 C 82 % 1020,0 hPa 0,0 mm W 278 9,7 km/h (2 Bft)
22.07.2020 09:40 20,0 C 82 % 1020,0 hPa 0,0 mm W 262 8,0 km/h (2 Bft)
22.07.2020 09:45 19,9 C 81 % 1020,0 hPa 0,0 mm W 262 8,0 km/h (2 Bft)
22.07.2020 09:50 19,9 C 82 % 1020,0 hPa 0,0 mm W-SW 257 9,7 km/h (2 Bft)
22.07.2020 09:55 19,8 C 83 % 1020,1 hPa 0,0 mm W 279 11,3 km/h (2 Bft)
22.07.2020 10:00 19,6 C 84 % 1020,1 hPa 0,2 mm W 271 9,7 km/h (2 Bft)
22.07.2020 10:05 19,3 C 85 % 1020,0 hPa 0,0 mm W 275 6,4 km/h (2 Bft)
22.07.2020 10:10 19,2 C 86 % 1020,0 hPa 0,0 mm W 265 6,4 km/h (2 Bft)
22.07.2020 10:15 19,3 C 86 % 1019,9 hPa 0,0 mm W 265 6,4 km/h (2 Bft)
22.07.2020 10:20 19,3 C 87 % 1019,8 hPa 0,0 mm W 265 3,2 km/h (1 Bft)
22.07.2020 10:25 19,6 C 87 % 1019,9 hPa 0,0 mm W 265 3,2 km/h (1 Bft)
22.07.2020 10:30 20,1 C 88 % 1020,0 hPa 0,0 mm W 265 4,8 km/h (1 Bft)
22.07.2020 10:35 20,5 C 87 % 1020,0 hPa 0,0 mm W 265 4,8 km/h (1 Bft)
22.07.2020 10:40 20,6 C 85 % 1019,9 hPa 0,0 mm W 263 8,0 km/h (2 Bft)
22.07.2020 10:45 21,9 C 83 % 1019,9 hPa 0,0 mm W 263 3,2 km/h (1 Bft)
22.07.2020 10:50 22,1 C 81 % 1019,9 hPa 0,0 mm W 263 6,4 km/h (2 Bft)
22.07.2020 10:55 22,1 C 84 % 1019,8 hPa 0,0 mm W 274 6,4 km/h (2 Bft)
22.07.2020 11:00 22,8 C 78 % 1019,8 hPa 0,0 mm W 276 8,0 km/h (2 Bft)
22.07.2020 11:05 22,9 C 79 % 1019,9 hPa 0,0 mm W 259 4,8 km/h (1 Bft)
22.07.2020 11:10 21,8 C 79 % 1019,9 hPa 0,0 mm W 259 4,8 km/h (1 Bft)
22.07.2020 11:15 21,4 C 80 % 1019,9 hPa 0,0 mm W 261 6,4 km/h (2 Bft)
22.07.2020 11:20 22,3 C 79 % 1019,9 hPa 0,0 mm W 271 6,4 km/h (2 Bft)
22.07.2020 11:25 22,9 C 78 % 1019,8 hPa 0,0 mm W 259 12,9 km/h (3 Bft)
22.07.2020 11:30 22,6 C 75 % 1019,9 hPa 0,0 mm W 269 12,9 km/h (3 Bft)
22.07.2020 11:35 22,2 C 74 % 1019,9 hPa 0,0 mm W 261 11,3 km/h (2 Bft)
22.07.2020 11:40 21,7 C 75 % 1019,8 hPa 0,0 mm W 271 8,0 km/h (2 Bft)
22.07.2020 11:45 21,4 C 78 % 1019,8 hPa 0,0 mm W 277 8,0 km/h (2 Bft)
22.07.2020 11:50 21,2 C 80 % 1019,8 hPa 0,0 mm W 267 6,4 km/h (2 Bft)
22.07.2020 11:55 21,3 C 81 % 1019,8 hPa 0,0 mm W 267 6,4 km/h (2 Bft)
22.07.2020 12:00 21,5 C 81 % 1019,9 hPa 0,0 mm W-SW 253 8,0 km/h (2 Bft)
22.07.2020 12:05 21,6 C 79 % 1019,9 hPa 0,0 mm W-NW 288 11,3 km/h (2 Bft)
22.07.2020 12:10 21,8 C 77 % 1019,8 hPa 0,0 mm W-NW 290 11,3 km/h (2 Bft)
22.07.2020 12:15 22,1 C 79 % 1019,8 hPa 0,0 mm W 278 8,0 km/h (2 Bft)
22.07.2020 12:20 22,4 C 78 % 1019,8 hPa 0,0 mm W-SW 246 12,9 km/h (3 Bft)
22.07.2020 12:25 22,9 C 75 % 1019,7 hPa 0,0 mm W 265 12,9 km/h (3 Bft)
22.07.2020 12:30 23,0 C 76 % 1019,6 hPa 0,0 mm W 273 8,0 km/h (2 Bft)
22.07.2020 12:35 23,5 C 74 % 1019,6 hPa 0,0 mm W 272 9,7 km/h (2 Bft)
22.07.2020 12:40 23,1 C 74 % 1019,6 hPa 0,0 mm N 5 8,0 km/h (2 Bft)
22.07.2020 12:45 23,3 C 73 % 1019,5 hPa 0,0 mm W 275 8,0 km/h (2 Bft)
22.07.2020 12:50 23,7 C 73 % 1019,4 hPa 0,0 mm W 278 9,7 km/h (2 Bft)
22.07.2020 12:55 23,5 C 72 % 1019,4 hPa 0,0 mm W 270 9,7 km/h (2 Bft)
22.07.2020 13:00 23,2 C 71 % 1019,4 hPa 0,0 mm W 272 9,7 km/h (2 Bft)
22.07.2020 13:05 23,1 C 72 % 1019,4 hPa 0,0 mm W-SW 257 9,7 km/h (2 Bft)
22.07.2020 13:10 22,8 C 72 % 1019,4 hPa 0,0 mm W 270 11,3 km/h (2 Bft)
22.07.2020 13:15 22,7 C 72 % 1019,2 hPa 0,0 mm W-SW 255 9,7 km/h (2 Bft)
22.07.2020 13:20 22,5 C 73 % 1019,2 hPa 0,0 mm W 263 12,9 km/h (3 Bft)
22.07.2020 13:25 22,3 C 74 % 1019,1 hPa 0,0 mm W 268 9,7 km/h (2 Bft)
22.07.2020 13:30 22,5 C 74 % 1019,1 hPa 0,0 mm W 268 6,4 km/h (2 Bft)
22.07.2020 13:35 23,4 C 74 % 1019,1 hPa 0,0 mm W 272 8,0 km/h (2 Bft)
22.07.2020 13:40 23,7 C 75 % 1019,0 hPa 0,0 mm W-NW 292 8,0 km/h (2 Bft)
22.07.2020 13:45 23,3 C 71 % 1018,9 hPa 0,0 mm W-NW 290 8,0 km/h (2 Bft)
22.07.2020 13:50 23,0 C 75 % 1018,8 hPa 0,0 mm W-SW 257 6,4 km/h (2 Bft)
22.07.2020 13:55 23,4 C 71 % 1018,8 hPa 0,0 mm W-SW 255 9,7 km/h (2 Bft)
22.07.2020 14:00 23,7 C 75 % 1018,7 hPa 0,0 mm W 270 8,0 km/h (2 Bft)
22.07.2020 14:05 23,7 C 72 % 1018,6 hPa 0,0 mm W 272 9,7 km/h (2 Bft)
22.07.2020 14:10 24,2 C 68 % 1018,5 hPa 0,0 mm W-NW 298 9,7 km/h (2 Bft)
22.07.2020 14:15 23,8 C 72 % 1018,5 hPa 0,0 mm W 271 8,0 km/h (2 Bft)
22.07.2020 14:20 24,1 C 69 % 1018,4 hPa 0,0 mm W-SW 253 9,7 km/h (2 Bft)
22.07.2020 14:25 23,9 C 68 % 1018,4 hPa 0,0 mm NO 38 6,4 km/h (2 Bft)
22.07.2020 14:30 24,0 C 69 % 1018,3 hPa 0,0 mm W 261 8,0 km/h (2 Bft)
22.07.2020 14:35 24,4 C 66 % 1018,2 hPa 0,0 mm N-NW 341 8,0 km/h (2 Bft)
22.07.2020 14:40 23,9 C 67 % 1018,0 hPa 0,0 mm N 5 8,0 km/h (2 Bft)
22.07.2020 14:45 23,7 C 70 % 1018,0 hPa 0,0 mm W 266 9,7 km/h (2 Bft)
22.07.2020 14:50 24,7 C 66 % 1018,0 hPa 0,0 mm W 280 12,9 km/h (3 Bft)
22.07.2020 14:55 24,6 C 70 % 1017,9 hPa 0,0 mm W-NW 284 4,8 km/h (1 Bft)
22.07.2020 15:00 24,9 C 69 % 1017,9 hPa 0,0 mm W-SW 258 8,0 km/h (2 Bft)
22.07.2020 15:05 24,7 C 65 % 1017,8 hPa 0,0 mm W 273 9,7 km/h (2 Bft)
22.07.2020 15:10 24,9 C 64 % 1017,7 hPa 0,0 mm W-NW 295 14,5 km/h (3 Bft)
22.07.2020 15:15 25,0 C 66 % 1017,7 hPa 0,0 mm W 275 9,7 km/h (2 Bft)
22.07.2020 15:20 25,1 C 61 % 1017,7 hPa 0,0 mm W 281 9,7 km/h (2 Bft)
22.07.2020 15:25 24,9 C 64 % 1017,6 hPa 0,0 mm S-SO 153 6,4 km/h (2 Bft)
22.07.2020 15:30 24,9 C 67 % 1017,5 hPa 0,0 mm W 279 9,7 km/h (2 Bft)
22.07.2020 15:35 25,0 C 63 % 1017,4 hPa 0,0 mm W 269 8,0 km/h (2 Bft)
22.07.2020 15:40 24,6 C 62 % 1017,4 hPa 0,0 mm W-NW 286 8,0 km/h (2 Bft)
22.07.2020 15:45 25,1 C 62 % 1017,4 hPa 0,0 mm W 281 8,0 km/h (2 Bft)
22.07.2020 15:50 25,2 C 64 % 1017,3 hPa 0,0 mm W 277 9,7 km/h (2 Bft)
22.07.2020 15:55 24,8 C 63 % 1017,3 hPa 0,0 mm W 275 6,4 km/h (2 Bft)
22.07.2020 16:00 25,2 C 62 % 1017,2 hPa 0,0 mm W 273 11,3 km/h (2 Bft)
22.07.2020 16:05 25,3 C 58 % 1017,3 hPa 0,0 mm W 271 6,4 km/h (2 Bft)
22.07.2020 16:10 25,5 C 64 % 1017,4 hPa 0,0 mm W-NW 283 11,3 km/h (2 Bft)
22.07.2020 16:15 25,4 C 62 % 1017,3 hPa 0,0 mm W 275 8,0 km/h (2 Bft)
22.07.2020 16:20 25,3 C 60 % 1017,2 hPa 0,0 mm W-NW 292 6,4 km/h (2 Bft)
22.07.2020 16:25 24,9 C 58 % 1017,1 hPa 0,0 mm W 275 6,4 km/h (2 Bft)
22.07.2020 16:30 24,4 C 61 % 1017,0 hPa 0,0 mm W 263 6,4 km/h (2 Bft)
22.07.2020 16:35 24,6 C 61 % 1017,1 hPa 0,0 mm W 271 9,7 km/h (2 Bft)
22.07.2020 16:40 24,8 C 61 % 1017,1 hPa 0,0 mm W 263 6,4 km/h (2 Bft)
22.07.2020 16:45 25,1 C 61 % 1017,1 hPa 0,0 mm W 279 8,0 km/h (2 Bft)
22.07.2020 16:50 24,8 C 65 % 1016,9 hPa 0,0 mm W 277 8,0 km/h (2 Bft)
22.07.2020 16:55 24,9 C 63 % 1016,9 hPa 0,0 mm S-SO 168 4,8 km/h (1 Bft)
22.07.2020 17:00 24,5 C 61 % 1016,9 hPa 0,0 mm S 169 4,8 km/h (1 Bft)
22.07.2020 17:05 24,4 C 62 % 1016,8 hPa 0,0 mm W-SW 257 6,4 km/h (2 Bft)
22.07.2020 17:10 24,6 C 62 % 1016,7 hPa 0,0 mm W 274 8,0 km/h (2 Bft)
22.07.2020 17:15 24,6 C 60 % 1016,7 hPa 0,0 mm W 274 4,8 km/h (1 Bft)
22.07.2020 17:20 24,8 C 62 % 1016,6 hPa 0,0 mm W 275 6,4 km/h (2 Bft)
22.07.2020 17:25 24,9 C 62 % 1016,6 hPa 0,0 mm W 278 6,4 km/h (2 Bft)
22.07.2020 17:30 24,9 C 62 % 1016,5 hPa 0,0 mm W 265 11,3 km/h (2 Bft)
22.07.2020 17:35 24,8 C 61 % 1016,5 hPa 0,0 mm W 269 9,7 km/h (2 Bft)
22.07.2020 17:40 25,0 C 60 % 1016,5 hPa 0,0 mm W 269 11,3 km/h (2 Bft)
22.07.2020 17:45 25,0 C 60 % 1016,4 hPa 0,0 mm W-SW 250 6,4 km/h (2 Bft)
22.07.2020 17:50 25,2 C 60 % 1016,3 hPa 0,0 mm W-SW 256 11,3 km/h (2 Bft)
22.07.2020 17:55 25,0 C 60 % 1016,3 hPa 0,0 mm W-NW 300 8,0 km/h (2 Bft)
22.07.2020 18:00 24,9 C 63 % 1016,2 hPa 0,0 mm W 273 9,7 km/h (2 Bft)
22.07.2020 18:05 24,8 C 60 % 1016,1 hPa 0,0 mm W 263 8,0 km/h (2 Bft)
22.07.2020 18:10 24,7 C 62 % 1016,0 hPa 0,0 mm W 264 6,4 km/h (2 Bft)
22.07.2020 18:15 24,5 C 62 % 1016,0 hPa 0,0 mm W 264 4,8 km/h (1 Bft)
22.07.2020 18:20 24,6 C 63 % 1015,9 hPa 0,0 mm W-NW 285 8,0 km/h (2 Bft)
22.07.2020 18:25 24,7 C 62 % 1015,9 hPa 0,0 mm W 273 8,0 km/h (2 Bft)
22.07.2020 18:30 24,4 C 64 % 1015,9 hPa 0,0 mm W 273 4,8 km/h (1 Bft)
22.07.2020 18:35 24,3 C 64 % 1015,8 hPa 0,0 mm W 274 6,4 km/h (2 Bft)
22.07.2020 18:40 24,2 C 63 % 1015,8 hPa 0,0 mm W 272 11,3 km/h (2 Bft)
22.07.2020 18:45 24,3 C 63 % 1015,8 hPa 0,0 mm W 263 8,0 km/h (2 Bft)
22.07.2020 18:50 24,1 C 64 % 1015,8 hPa 0,0 mm W 270 6,4 km/h (2 Bft)
22.07.2020 18:55 23,9 C 63 % 1015,7 hPa 0,0 mm W 270 6,4 km/h (2 Bft)
22.07.2020 19:00 23,8 C 63 % 1015,7 hPa 0,0 mm W 270 4,8 km/h (1 Bft)
22.07.2020 19:05 23,6 C 65 % 1015,6 hPa 0,0 mm W 270 1,6 km/h (1 Bft)
22.07.2020 19:10 23,4 C 62 % 1015,5 hPa 0,0 mm W 270 4,8 km/h (1 Bft)
22.07.2020 19:15 23,3 C 63 % 1015,6 hPa 0,0 mm W 270 3,2 km/h (1 Bft)
22.07.2020 19:20 23,3 C 66 % 1015,7 hPa 0,0 mm W 270 3,2 km/h (1 Bft)
22.07.2020 19:25 23,2 C 68 % 1015,7 hPa 0,0 mm W 270 1,6 km/h (1 Bft)
22.07.2020 19:30 23,2 C 69 % 1015,8 hPa 0,0 mm W 270 3,2 km/h (1 Bft)
22.07.2020 19:35 23,1 C 68 % 1015,9 hPa 0,0 mm W 270 1,6 km/h (1 Bft)
22.07.2020 19:40 23,1 C 69 % 1016,0 hPa 0,0 mm W 270 0,0 km/h (0 Bft)
22.07.2020 19:45 23,0 C 69 % 1015,9 hPa 0,0 mm W 270 0,0 km/h (0 Bft)
22.07.2020 19:50 22,8 C 68 % 1015,9 hPa 0,0 mm W 270 0,0 km/h (0 Bft)
22.07.2020 19:55 22,7 C 68 % 1015,9 hPa 0,0 mm W 270 0,0 km/h (0 Bft)
22.07.2020 20:00 22,6 C 69 % 1016,0 hPa 0,0 mm W 270 0,0 km/h (0 Bft)
22.07.2020 20:05 22,4 C 70 % 1016,0 hPa 0,0 mm W 270 4,8 km/h (1 Bft)
22.07.2020 20:10 22,3 C 70 % 1016,1 hPa 0,0 mm W 270 1,6 km/h (1 Bft)
22.07.2020 20:15 22,2 C 71 % 1015,9 hPa 0,0 mm W 270 0,0 km/h (0 Bft)
22.07.2020 20:20 22,0 C 72 % 1015,9 hPa 0,0 mm W 270 0,0 km/h (0 Bft)
22.07.2020 20:25 21,9 C 72 % 1015,9 hPa 0,0 mm W 270 0,0 km/h (0 Bft)
22.07.2020 20:30 21,7 C 72 % 1015,8 hPa 0,0 mm W 270 0,0 km/h (0 Bft)
22.07.2020 20:35 21,6 C 73 % 1015,8 hPa 0,0 mm W 270 1,6 km/h (1 Bft)
22.07.2020 20:40 21,3 C 74 % 1015,8 hPa 0,0 mm W 270 1,6 km/h (1 Bft)
22.07.2020 20:45 21,2 C 74 % 1015,8 hPa 0,0 mm W 270 1,6 km/h (1 Bft)
22.07.2020 20:50 21,0 C 75 % 1015,9 hPa 0,0 mm W 270 3,2 km/h (1 Bft)
22.07.2020 20:55 20,8 C 76 % 1015,9 hPa 0,0 mm W 270 3,2 km/h (1 Bft)
22.07.2020 21:00 20,7 C 76 % 1015,9 hPa 0,0 mm W 270 0,0 km/h (0 Bft)
22.07.2020 21:05 20,6 C 76 % 1015,8 hPa 0,0 mm W 270 3,2 km/h (1 Bft)
22.07.2020 21:10 20,4 C 77 % 1015,9 hPa 0,0 mm W 270 3,2 km/h (1 Bft)
22.07.2020 21:15 20,3 C 78 % 1016,0 hPa 0,0 mm W 270 3,2 km/h (1 Bft)
22.07.2020 21:20 20,2 C 78 % 1016,0 hPa 0,0 mm W 270 3,2 km/h (1 Bft)
22.07.2020 21:25 20,0 C 78 % 1016,1 hPa 0,0 mm W 270 0,0 km/h (0 Bft)
22.07.2020 21:30 19,9 C 79 % 1016,1 hPa 0,0 mm W 270 3,2 km/h (1 Bft)
22.07.2020 21:35 19,8 C 79 % 1016,2 hPa 0,0 mm W 270 0,0 km/h (0 Bft)
22.07.2020 21:40 19,7 C 79 % 1016,2 hPa 0,0 mm W 270 0,0 km/h (0 Bft)
22.07.2020 21:45 19,7 C 80 % 1016,1 hPa 0,0 mm W 270 0,0 km/h (0 Bft)
22.07.2020 21:50 19,6 C 80 % 1016,2 hPa 0,0 mm W 270 0,0 km/h (0 Bft)
22.07.2020 21:55 19,5 C 80 % 1016,2 hPa 0,0 mm W 270 0,0 km/h (0 Bft)
22.07.2020 22:00 19,4 C 80 % 1016,2 hPa 0,0 mm W 270 0,0 km/h (0 Bft)
22.07.2020 22:05 19,3 C 80 % 1016,3 hPa 0,0 mm W 270 0,0 km/h (0 Bft)
22.07.2020 22:10 19,2 C 81 % 1016,3 hPa 0,0 mm W 270 0,0 km/h (0 Bft)
22.07.2020 22:15 19,1 C 81 % 1016,2 hPa 0,0 mm W 270 0,0 km/h (0 Bft)
22.07.2020 22:20 19,1 C 81 % 1016,2 hPa 0,0 mm W 270 0,0 km/h (0 Bft)
22.07.2020 22:25 19,0 C 81 % 1016,1 hPa 0,0 mm W 270 0,0 km/h (0 Bft)
22.07.2020 22:30 18,9 C 81 % 1016,1 hPa 0,0 mm W 270 0,0 km/h (0 Bft)
22.07.2020 22:35 18,8 C 81 % 1016,1 hPa 0,0 mm W 270 0,0 km/h (0 Bft)
22.07.2020 22:40 18,7 C 81 % 1016,1 hPa 0,0 mm W 270 0,0 km/h (0 Bft)
22.07.2020 22:45 18,6 C 81 % 1016,0 hPa 0,0 mm W 270 0,0 km/h (0 Bft)
22.07.2020 22:50 18,5 C 82 % 1016,0 hPa 0,0 mm W 270 0,0 km/h (0 Bft)
22.07.2020 22:55 18,4 C 82 % 1016,1 hPa 0,0 mm W 270 0,0 km/h (0 Bft)
22.07.2020 23:00 18,3 C 82 % 1016,0 hPa 0,0 mm W 270 0,0 km/h (0 Bft)
22.07.2020 23:05 18,2 C 82 % 1016,0 hPa 0,0 mm W 270 0,0 km/h (0 Bft)
22.07.2020 23:10 18,1 C 82 % 1015,9 hPa 0,0 mm W 270 0,0 km/h (0 Bft)
22.07.2020 23:15 18,0 C 82 % 1015,9 hPa 0,0 mm W 270 0,0 km/h (0 Bft)
22.07.2020 23:20 17,9 C 83 % 1016,1 hPa 0,0 mm W 270 0,0 km/h (0 Bft)
22.07.2020 23:25 17,8 C 83 % 1016,1 hPa 0,0 mm W 270 0,0 km/h (0 Bft)
22.07.2020 23:30 17,8 C 83 % 1016,1 hPa 0,0 mm W 270 0,0 km/h (0 Bft)
22.07.2020 23:35 17,7 C 83 % 1016,2 hPa 0,0 mm W 270 0,0 km/h (0 Bft)
22.07.2020 23:40 17,7 C 84 % 1016,2 hPa 0,0 mm W 270 0,0 km/h (0 Bft)
22.07.2020 23:45 17,6 C 84 % 1016,1 hPa 0,0 mm W 270 0,0 km/h (0 Bft)
22.07.2020 23:50 17,5 C 84 % 1016,1 hPa 0,0 mm W 270 0,0 km/h (0 Bft)
22.07.2020 23:55 17,4 C 84 % 1015,9 hPa 0,0 mm W 270 0,0 km/h (0 Bft)
_ Min-Zeit 05:15 16:05 19:10 - - - 00:25
Minimum _ 14,5 C 58 % 1015,5 hPa - - - 0,0 km/h (0 Bft)
_ Max-Zeit 16:10 07:40 09:55 10:00 - - 15:10
Maximum _ 25,5 C 92 % 1020,1 hPa 0,2 mm - - 14,5 km/h
W (3 Bft)
Durchschnitt _ 19,9 C 79 % 1018,1 hPa #0,2 mm W - 4,4 km/h (1 Bft)